Year,Month,Day,Hour,Minute,Value (Times are PST for temperature in C)
2017,09,03,00,00,19.50
2017,09,03,00,01,19.50
2017,09,03,00,02,19.40
2017,09,03,00,03,19.40
2017,09,03,00,04,19.40
2017,09,03,00,05,19.50
2017,09,03,00,06,19.50
2017,09,03,00,07,19.50
2017,09,03,00,08,19.50
2017,09,03,00,09,19.60
2017,09,03,00,10,19.60
2017,09,03,00,11,19.60
2017,09,03,00,12,19.60
2017,09,03,00,13,19.60
2017,09,03,00,14,19.60
2017,09,03,00,15,19.70
2017,09,03,00,16,19.60
2017,09,03,00,17,19.60
2017,09,03,00,18,19.60
2017,09,03,00,19,19.60
2017,09,03,00,20,19.50
2017,09,03,00,21,19.50
2017,09,03,00,22,19.50
2017,09,03,00,23,19.50
2017,09,03,00,24,19.50
2017,09,03,00,25,19.40
2017,09,03,00,26,19.40
2017,09,03,00,27,19.40
2017,09,03,00,28,19.40
2017,09,03,00,29,19.50
2017,09,03,00,30,19.50
2017,09,03,00,31,19.50
2017,09,03,00,32,19.50
2017,09,03,00,33,19.50
2017,09,03,00,34,19.40
2017,09,03,00,35,19.40
2017,09,03,00,36,19.40
2017,09,03,00,37,19.40
2017,09,03,00,38,19.40
2017,09,03,00,39,19.30
2017,09,03,00,40,19.30
2017,09,03,00,41,19.30
2017,09,03,00,42,19.20
2017,09,03,00,43,19.20
2017,09,03,00,44,19.20
2017,09,03,00,45,19.20
2017,09,03,00,46,19.20
2017,09,03,00,47,19.20
2017,09,03,00,48,19.10
2017,09,03,00,49,19.10
2017,09,03,00,50,19.10
2017,09,03,00,51,19.10
2017,09,03,00,52,19.10
2017,09,03,00,53,19.10
2017,09,03,00,54,19.10
2017,09,03,00,55,19.10
2017,09,03,00,56,19.10
2017,09,03,00,57,19.10
2017,09,03,00,58,19.10
2017,09,03,00,59,19.10
2017,09,03,01,00,19.10
2017,09,03,01,01,19.10
2017,09,03,01,02,19.10
2017,09,03,01,03,19.10
2017,09,03,01,04,19.10
2017,09,03,01,05,19.10
2017,09,03,01,06,19.10
2017,09,03,01,07,19.10
2017,09,03,01,08,19.10
2017,09,03,01,09,19.10
2017,09,03,01,10,19.10
2017,09,03,01,11,19.10
2017,09,03,01,12,19.10
2017,09,03,01,13,19.10
2017,09,03,01,14,19.20
2017,09,03,01,15,19.20
2017,09,03,01,16,19.20
2017,09,03,01,17,19.20
2017,09,03,01,18,19.20
2017,09,03,01,19,19.20
2017,09,03,01,20,19.20
2017,09,03,01,21,19.20
2017,09,03,01,22,19.10
2017,09,03,01,23,19.10
2017,09,03,01,24,19.10
2017,09,03,01,25,19.10
2017,09,03,01,26,19.00
2017,09,03,01,27,19.00
2017,09,03,01,28,18.90
2017,09,03,01,29,18.90
2017,09,03,01,30,18.90
2017,09,03,01,31,18.90
2017,09,03,01,32,18.80
2017,09,03,01,33,18.80
2017,09,03,01,34,18.80
2017,09,03,01,35,18.80
2017,09,03,01,36,18.70
2017,09,03,01,37,18.70
2017,09,03,01,38,18.70
2017,09,03,01,39,18.70
2017,09,03,01,40,18.60
2017,09,03,01,41,18.60
2017,09,03,01,42,18.60
2017,09,03,01,43,18.60
2017,09,03,01,44,18.50
2017,09,03,01,45,18.50
2017,09,03,01,46,18.50
2017,09,03,01,47,18.50
2017,09,03,01,48,18.50
2017,09,03,01,49,18.50
2017,09,03,01,50,18.50
2017,09,03,01,51,18.50
2017,09,03,01,52,18.50
2017,09,03,01,53,18.50
2017,09,03,01,54,18.50
2017,09,03,01,55,18.50
2017,09,03,01,56,18.60
2017,09,03,01,57,18.60
2017,09,03,01,58,18.60
2017,09,03,01,59,18.60
2017,09,03,02,00,18.60
2017,09,03,02,01,18.60
2017,09,03,02,02,18.60
2017,09,03,02,03,18.60
2017,09,03,02,04,18.60
2017,09,03,02,05,18.60
2017,09,03,02,06,18.60
2017,09,03,02,07,18.60
2017,09,03,02,08,18.70
2017,09,03,02,09,18.70
2017,09,03,02,10,18.70
2017,09,03,02,11,18.70
2017,09,03,02,12,18.70
2017,09,03,02,13,18.70
2017,09,03,02,14,18.70
2017,09,03,02,15,18.80
2017,09,03,02,16,18.80
2017,09,03,02,17,18.80
2017,09,03,02,18,18.70
2017,09,03,02,19,18.70
2017,09,03,02,20,18.70
2017,09,03,02,21,18.70
2017,09,03,02,22,18.70
2017,09,03,02,23,18.70
2017,09,03,02,24,18.70
2017,09,03,02,25,18.70
2017,09,03,02,26,18.70
2017,09,03,02,27,18.70
2017,09,03,02,28,18.70
2017,09,03,02,29,18.70
2017,09,03,02,30,18.70
2017,09,03,02,31,18.70
2017,09,03,02,32,18.70
2017,09,03,02,33,18.70
2017,09,03,02,34,18.60
2017,09,03,02,35,18.60
2017,09,03,02,36,18.60
2017,09,03,02,37,18.50
2017,09,03,02,38,18.50
2017,09,03,02,39,18.50
2017,09,03,02,40,18.40
2017,09,03,02,41,18.40
2017,09,03,02,42,18.40
2017,09,03,02,43,18.40
2017,09,03,02,44,18.40
2017,09,03,02,45,18.40
2017,09,03,02,46,18.40
2017,09,03,02,47,18.40
2017,09,03,02,48,18.30
2017,09,03,02,49,18.30
2017,09,03,02,50,18.30
2017,09,03,02,51,18.30
2017,09,03,02,52,18.30
2017,09,03,02,53,18.30
2017,09,03,02,54,18.30
2017,09,03,02,55,18.30
2017,09,03,02,56,18.30
2017,09,03,02,57,18.30
2017,09,03,02,58,18.30
2017,09,03,02,59,18.30
2017,09,03,03,00,18.30
2017,09,03,03,01,18.30
2017,09,03,03,02,18.30
2017,09,03,03,03,18.20
2017,09,03,03,04,18.20
2017,09,03,03,05,18.20
2017,09,03,03,06,18.20
2017,09,03,03,07,18.20
2017,09,03,03,08,18.20
2017,09,03,03,09,18.30
2017,09,03,03,10,18.30
2017,09,03,03,11,18.30
2017,09,03,03,12,18.40
2017,09,03,03,13,18.40
2017,09,03,03,14,18.50
2017,09,03,03,15,18.60
2017,09,03,03,16,18.60
2017,09,03,03,17,18.70
2017,09,03,03,18,18.70
2017,09,03,03,19,18.70
2017,09,03,03,20,18.70
2017,09,03,03,21,18.80
2017,09,03,03,22,18.80
2017,09,03,03,23,18.80
2017,09,03,03,24,18.80
2017,09,03,03,25,18.80
2017,09,03,03,26,18.70
2017,09,03,03,27,18.70
2017,09,03,03,28,18.70
2017,09,03,03,29,18.70
2017,09,03,03,30,18.70
2017,09,03,03,31,18.70
2017,09,03,03,32,18.70
2017,09,03,03,33,18.80
2017,09,03,03,34,18.80
2017,09,03,03,35,18.80
2017,09,03,03,36,18.80
2017,09,03,03,37,18.90
2017,09,03,03,38,18.90
2017,09,03,03,39,18.90
2017,09,03,03,40,18.90
2017,09,03,03,41,18.90
2017,09,03,03,42,18.90
2017,09,03,03,43,18.90
2017,09,03,03,44,18.90
2017,09,03,03,45,18.90
2017,09,03,03,46,18.90
2017,09,03,03,47,18.90
2017,09,03,03,48,18.80
2017,09,03,03,49,18.80
2017,09,03,03,50,18.80
2017,09,03,03,51,18.80
2017,09,03,03,52,18.70
2017,09,03,03,53,18.70
2017,09,03,03,54,18.70
2017,09,03,03,55,18.60
2017,09,03,03,56,18.60
2017,09,03,03,57,18.60
2017,09,03,03,58,18.50
2017,09,03,03,59,18.50
2017,09,03,04,00,18.40
2017,09,03,04,01,18.40
2017,09,03,04,02,18.40
2017,09,03,04,03,18.40
2017,09,03,04,04,18.40
2017,09,03,04,05,18.30
2017,09,03,04,06,18.30
2017,09,03,04,07,18.30
2017,09,03,04,08,18.30
2017,09,03,04,09,18.30
2017,09,03,04,10,18.30
2017,09,03,04,11,18.30
2017,09,03,04,12,18.30
2017,09,03,04,13,18.40
2017,09,03,04,14,18.40
2017,09,03,04,15,18.40
2017,09,03,04,16,18.40
2017,09,03,04,17,18.40
2017,09,03,04,18,18.40
2017,09,03,04,19,18.40
2017,09,03,04,20,18.40
2017,09,03,04,21,18.40
2017,09,03,04,22,18.40
2017,09,03,04,23,18.40
2017,09,03,04,24,18.40
2017,09,03,04,25,18.40
2017,09,03,04,26,18.40
2017,09,03,04,27,18.40
2017,09,03,04,28,18.40
2017,09,03,04,29,18.40
2017,09,03,04,30,18.40
2017,09,03,04,31,18.40
2017,09,03,04,32,18.40
2017,09,03,04,33,18.40
2017,09,03,04,34,18.40
2017,09,03,04,35,18.40
2017,09,03,04,36,18.40
2017,09,03,04,37,18.40
2017,09,03,04,38,18.40
2017,09,03,04,39,18.40
2017,09,03,04,40,18.40
2017,09,03,04,41,18.40
2017,09,03,04,42,18.40
2017,09,03,04,43,18.30
2017,09,03,04,44,18.30
2017,09,03,04,45,18.30
2017,09,03,04,46,18.30
2017,09,03,04,47,18.30
2017,09,03,04,48,18.30
2017,09,03,04,49,18.30
2017,09,03,04,50,18.30
2017,09,03,04,51,18.30
2017,09,03,04,52,18.30
2017,09,03,04,53,18.30
2017,09,03,04,54,18.30
2017,09,03,04,55,18.30
2017,09,03,04,56,18.20
2017,09,03,04,57,18.20
2017,09,03,04,58,18.20
2017,09,03,04,59,18.20
2017,09,03,05,00,18.20
2017,09,03,05,01,18.20
2017,09,03,05,02,18.20
2017,09,03,05,03,18.20
2017,09,03,05,04,18.10
2017,09,03,05,05,18.10
2017,09,03,05,06,18.10
2017,09,03,05,07,18.10
2017,09,03,05,08,18.10
2017,09,03,05,09,18.10
2017,09,03,05,10,18.10
2017,09,03,05,11,18.10
2017,09,03,05,12,18.10
2017,09,03,05,13,18.10
2017,09,03,05,14,18.00
2017,09,03,05,15,18.00
2017,09,03,05,16,18.00
2017,09,03,05,17,18.00
2017,09,03,05,18,17.90
2017,09,03,05,19,17.90
2017,09,03,05,20,17.90
2017,09,03,05,21,17.90
2017,09,03,05,22,17.90
2017,09,03,05,23,17.90
2017,09,03,05,24,17.80
2017,09,03,05,25,17.80
2017,09,03,05,26,17.80
2017,09,03,05,27,17.80
2017,09,03,05,28,17.80
2017,09,03,05,29,17.80
2017,09,03,05,30,17.80
2017,09,03,05,31,17.80
2017,09,03,05,32,17.80
2017,09,03,05,33,17.80
2017,09,03,05,34,17.80
2017,09,03,05,35,17.80
2017,09,03,05,36,17.80
2017,09,03,05,37,17.80
2017,09,03,05,38,17.80
2017,09,03,05,39,17.80
2017,09,03,05,40,17.80
2017,09,03,05,41,17.80
2017,09,03,05,42,17.80
2017,09,03,05,43,17.80
2017,09,03,05,44,17.80
2017,09,03,05,45,17.80
2017,09,03,05,46,17.80
2017,09,03,05,47,17.80
2017,09,03,05,48,17.70
2017,09,03,05,49,17.70
2017,09,03,05,50,17.70
2017,09,03,05,51,17.70
2017,09,03,05,52,17.70
2017,09,03,05,53,17.70
2017,09,03,05,54,17.70
2017,09,03,05,55,17.60
2017,09,03,05,56,17.60
2017,09,03,05,57,17.60
2017,09,03,05,58,17.60
2017,09,03,05,59,17.60
2017,09,03,06,00,17.60
2017,09,03,06,01,17.60
2017,09,03,06,02,17.60
2017,09,03,06,03,17.50
2017,09,03,06,04,17.50
2017,09,03,06,05,17.60
2017,09,03,06,06,17.50
2017,09,03,06,07,17.50
2017,09,03,06,08,17.50
2017,09,03,06,09,17.50
2017,09,03,06,10,17.50
2017,09,03,06,11,17.50
2017,09,03,06,12,17.50
2017,09,03,06,13,17.50
2017,09,03,06,14,17.50
2017,09,03,06,15,17.50
2017,09,03,06,16,17.40
2017,09,03,06,17,17.40
2017,09,03,06,18,17.40
2017,09,03,06,19,17.40
2017,09,03,06,20,17.40
2017,09,03,06,21,17.40
2017,09,03,06,22,17.40
2017,09,03,06,23,17.40
2017,09,03,06,24,17.40
2017,09,03,06,25,17.40
2017,09,03,06,26,17.50
2017,09,03,06,27,17.50
2017,09,03,06,28,17.50
2017,09,03,06,29,17.60
2017,09,03,06,30,17.60
2017,09,03,06,31,17.60
2017,09,03,06,32,17.60
2017,09,03,06,33,17.60
2017,09,03,06,34,17.60
2017,09,03,06,35,17.60
2017,09,03,06,36,17.70
2017,09,03,06,37,17.70
2017,09,03,06,38,17.70
2017,09,03,06,39,17.70
2017,09,03,06,40,17.70
2017,09,03,06,41,17.70
2017,09,03,06,42,17.70
2017,09,03,06,43,17.70
2017,09,03,06,44,17.60
2017,09,03,06,45,17.60
2017,09,03,06,46,17.60
2017,09,03,06,47,17.60
2017,09,03,06,48,17.60
2017,09,03,06,49,17.60
2017,09,03,06,50,17.60
2017,09,03,06,51,17.60
2017,09,03,06,52,17.60
2017,09,03,06,53,17.60
2017,09,03,06,54,17.60
2017,09,03,06,55,17.60
2017,09,03,06,56,17.60
2017,09,03,06,57,17.60
2017,09,03,06,58,17.60
2017,09,03,06,59,17.60
2017,09,03,07,00,17.60
2017,09,03,07,01,17.60
2017,09,03,07,02,17.60
2017,09,03,07,03,17.50
2017,09,03,07,04,17.60
2017,09,03,07,05,17.60
2017,09,03,07,06,17.60
2017,09,03,07,07,17.60
2017,09,03,07,08,17.60
2017,09,03,07,09,17.60
2017,09,03,07,10,17.60
2017,09,03,07,11,17.60
2017,09,03,07,12,17.60
2017,09,03,07,13,17.60
2017,09,03,07,14,17.60
2017,09,03,07,15,17.60
2017,09,03,07,16,17.70
2017,09,03,07,17,17.70
2017,09,03,07,18,17.70
2017,09,03,07,19,17.80
2017,09,03,07,20,17.80
2017,09,03,07,21,17.80
2017,09,03,07,22,17.90
2017,09,03,07,23,17.90
2017,09,03,07,24,18.00
2017,09,03,07,25,18.00
2017,09,03,07,26,18.00
2017,09,03,07,27,18.10
2017,09,03,07,28,18.20
2017,09,03,07,29,18.20
2017,09,03,07,30,18.30
2017,09,03,07,31,18.30
2017,09,03,07,32,18.40
2017,09,03,07,33,18.40
2017,09,03,07,34,18.50
2017,09,03,07,35,18.50
2017,09,03,07,36,18.60
2017,09,03,07,37,18.60
2017,09,03,07,38,18.70
2017,09,03,07,39,18.70
2017,09,03,07,40,18.80
2017,09,03,07,41,18.80
2017,09,03,07,42,18.90
2017,09,03,07,43,18.90
2017,09,03,07,44,18.90
2017,09,03,07,45,19.00
2017,09,03,07,46,19.00
2017,09,03,07,47,19.00
2017,09,03,07,48,19.10
2017,09,03,07,49,19.10
2017,09,03,07,50,19.10
2017,09,03,07,51,19.10
2017,09,03,07,52,19.10
2017,09,03,07,53,19.10
2017,09,03,07,54,19.20
2017,09,03,07,55,19.20
2017,09,03,07,56,19.20
2017,09,03,07,57,19.30
2017,09,03,07,58,19.30
2017,09,03,07,59,19.40
2017,09,03,08,00,19.40
2017,09,03,08,01,19.50
2017,09,03,08,02,19.50
2017,09,03,08,03,19.60
2017,09,03,08,04,19.60
2017,09,03,08,05,19.60
2017,09,03,08,06,19.70
2017,09,03,08,07,19.70
2017,09,03,08,08,19.80
2017,09,03,08,09,19.80
2017,09,03,08,10,19.90
2017,09,03,08,11,20.00
2017,09,03,08,12,20.00
2017,09,03,08,13,20.10
2017,09,03,08,14,20.10
2017,09,03,08,15,20.20
2017,09,03,08,16,20.20
2017,09,03,08,17,20.30
2017,09,03,08,18,20.30
2017,09,03,08,19,20.40
2017,09,03,08,20,20.40
2017,09,03,08,21,20.40
2017,09,03,08,22,20.40
2017,09,03,08,23,20.40
2017,09,03,08,24,20.40
2017,09,03,08,25,20.40
2017,09,03,08,26,20.40
2017,09,03,08,27,20.50
2017,09,03,08,28,20.50
2017,09,03,08,29,20.50
2017,09,03,08,30,20.60
2017,09,03,08,31,20.60
2017,09,03,08,32,20.60
2017,09,03,08,33,20.60
2017,09,03,08,34,20.60
2017,09,03,08,35,20.70
2017,09,03,08,36,20.70
2017,09,03,08,37,20.60
2017,09,03,08,38,20.60
2017,09,03,08,39,20.60
2017,09,03,08,40,20.60
2017,09,03,08,41,20.60
2017,09,03,08,42,20.60
2017,09,03,08,43,20.60
2017,09,03,08,44,20.60
2017,09,03,08,45,20.60
2017,09,03,08,46,20.70
2017,09,03,08,47,20.70
2017,09,03,08,48,20.70
2017,09,03,08,49,20.80
2017,09,03,08,50,20.80
2017,09,03,08,51,20.90
2017,09,03,08,52,20.90
2017,09,03,08,53,21.00
2017,09,03,08,54,21.00
2017,09,03,08,55,21.10
2017,09,03,08,56,21.20
2017,09,03,08,57,21.30
2017,09,03,08,58,21.40
2017,09,03,08,59,21.40
2017,09,03,09,00,21.60
2017,09,03,09,01,21.70
2017,09,03,09,02,21.80
2017,09,03,09,03,21.90
2017,09,03,09,04,22.00
2017,09,03,09,05,22.20
2017,09,03,09,06,22.30
2017,09,03,09,07,22.40
2017,09,03,09,08,22.50
2017,09,03,09,09,22.60
2017,09,03,09,10,22.70
2017,09,03,09,11,22.70
2017,09,03,09,12,22.80
2017,09,03,09,13,22.80
2017,09,03,09,14,22.90
2017,09,03,09,15,23.00
2017,09,03,09,16,23.10
2017,09,03,09,17,23.10
2017,09,03,09,18,23.20
2017,09,03,09,19,23.20
2017,09,03,09,20,23.30
2017,09,03,09,21,23.40
2017,09,03,09,22,23.40
2017,09,03,09,23,23.50
2017,09,03,09,24,23.60
2017,09,03,09,25,23.60
2017,09,03,09,26,23.70
2017,09,03,09,27,23.70
2017,09,03,09,28,23.60
2017,09,03,09,29,23.60
2017,09,03,09,30,23.50
2017,09,03,09,31,23.50
2017,09,03,09,32,23.40
2017,09,03,09,33,23.40
2017,09,03,09,34,23.30
2017,09,03,09,35,23.30
2017,09,03,09,36,23.30
2017,09,03,09,37,23.30
2017,09,03,09,38,23.30
2017,09,03,09,39,23.20
2017,09,03,09,40,23.20
2017,09,03,09,41,23.10
2017,09,03,09,42,23.10
2017,09,03,09,43,23.10
2017,09,03,09,44,23.10
2017,09,03,09,45,23.10
2017,09,03,09,46,23.10
2017,09,03,09,47,23.10
2017,09,03,09,48,23.10
2017,09,03,09,49,23.10
2017,09,03,09,50,23.20
2017,09,03,09,51,23.20
2017,09,03,09,52,23.30
2017,09,03,09,53,23.30
2017,09,03,09,54,23.30
2017,09,03,09,55,23.40
2017,09,03,09,56,23.40
2017,09,03,09,57,23.50
2017,09,03,09,58,23.50
2017,09,03,09,59,23.50
2017,09,03,10,00,23.60
2017,09,03,10,01,23.60
2017,09,03,10,02,23.70
2017,09,03,10,03,23.70
2017,09,03,10,04,23.70
2017,09,03,10,05,23.70
2017,09,03,10,06,23.80
2017,09,03,10,07,23.80
2017,09,03,10,08,23.90
2017,09,03,10,09,23.90
2017,09,03,10,10,24.00
2017,09,03,10,11,24.00
2017,09,03,10,12,24.10
2017,09,03,10,13,24.10
2017,09,03,10,14,24.20
2017,09,03,10,15,24.20
2017,09,03,10,16,24.20
2017,09,03,10,17,24.30
2017,09,03,10,18,24.30
2017,09,03,10,19,24.30
2017,09,03,10,20,24.40
2017,09,03,10,21,24.40
2017,09,03,10,22,24.40
2017,09,03,10,23,24.40
2017,09,03,10,24,24.50
2017,09,03,10,25,24.50
2017,09,03,10,26,24.60
2017,09,03,10,27,24.60
2017,09,03,10,28,24.60
2017,09,03,10,29,24.60
2017,09,03,10,30,24.60
2017,09,03,10,31,24.50
2017,09,03,10,32,24.40
2017,09,03,10,33,24.40
2017,09,03,10,34,24.30
2017,09,03,10,35,24.30
2017,09,03,10,36,24.30
2017,09,03,10,37,24.20
2017,09,03,10,38,24.30
2017,09,03,10,39,24.30
2017,09,03,10,40,24.30
2017,09,03,10,41,24.30
2017,09,03,10,42,24.30
2017,09,03,10,43,24.40
2017,09,03,10,44,24.40
2017,09,03,10,45,24.40
2017,09,03,10,46,24.40
2017,09,03,10,47,24.40
2017,09,03,10,48,24.50
2017,09,03,10,49,24.50
2017,09,03,10,50,24.60
2017,09,03,10,51,24.70
2017,09,03,10,52,24.70
2017,09,03,10,53,24.70
2017,09,03,10,54,24.80
2017,09,03,10,55,24.80
2017,09,03,10,56,24.80
2017,09,03,10,57,24.70
2017,09,03,10,58,24.70
2017,09,03,10,59,24.70
2017,09,03,11,00,24.80
2017,09,03,11,01,24.80
2017,09,03,11,02,24.90
2017,09,03,11,03,24.90
2017,09,03,11,04,25.00
2017,09,03,11,05,25.00
2017,09,03,11,06,25.10
2017,09,03,11,07,25.10
2017,09,03,11,08,25.10
2017,09,03,11,09,25.10
2017,09,03,11,10,25.10
2017,09,03,11,11,25.10
2017,09,03,11,12,25.10
2017,09,03,11,13,25.10
2017,09,03,11,14,25.10
2017,09,03,11,15,25.10
2017,09,03,11,16,25.00
2017,09,03,11,17,24.90
2017,09,03,11,18,24.90
2017,09,03,11,19,24.80
2017,09,03,11,20,24.80
2017,09,03,11,21,24.80
2017,09,03,11,22,24.80
2017,09,03,11,23,24.80
2017,09,03,11,24,24.80
2017,09,03,11,25,24.80
2017,09,03,11,26,24.80
2017,09,03,11,27,24.80
2017,09,03,11,28,24.80
2017,09,03,11,29,24.80
2017,09,03,11,30,24.90
2017,09,03,11,31,24.90
2017,09,03,11,32,24.90
2017,09,03,11,33,25.00
2017,09,03,11,34,25.00
2017,09,03,11,35,25.10
2017,09,03,11,36,25.10
2017,09,03,11,37,25.20
2017,09,03,11,38,25.20
2017,09,03,11,39,25.30
2017,09,03,11,40,25.30
2017,09,03,11,41,25.30
2017,09,03,11,42,25.30
2017,09,03,11,43,25.30
2017,09,03,11,44,25.30
2017,09,03,11,45,25.30
2017,09,03,11,46,25.30
2017,09,03,11,47,25.30
2017,09,03,11,48,25.30
2017,09,03,11,49,25.30
2017,09,03,11,50,25.30
2017,09,03,11,51,25.30
2017,09,03,11,52,25.30
2017,09,03,11,53,25.30
2017,09,03,11,54,25.40
2017,09,03,11,55,25.40
2017,09,03,11,56,25.30
2017,09,03,11,57,25.30
2017,09,03,11,58,25.30
2017,09,03,11,59,25.30
2017,09,03,12,00,25.30
2017,09,03,12,01,25.20
2017,09,03,12,02,25.10
2017,09,03,12,03,25.10
2017,09,03,12,04,25.10
2017,09,03,12,05,25.10
2017,09,03,12,06,25.10
2017,09,03,12,07,25.10
2017,09,03,12,08,25.20
2017,09,03,12,09,25.20
2017,09,03,12,10,25.30
2017,09,03,12,11,25.30
2017,09,03,12,12,25.40
2017,09,03,12,13,25.40
2017,09,03,12,14,25.50
2017,09,03,12,15,25.60
2017,09,03,12,16,25.60
2017,09,03,12,17,25.70
2017,09,03,12,18,25.70
2017,09,03,12,19,25.70
2017,09,03,12,20,25.70
2017,09,03,12,21,25.70
2017,09,03,12,22,25.80
2017,09,03,12,23,25.80
2017,09,03,12,24,25.90
2017,09,03,12,25,25.90
2017,09,03,12,26,25.90
2017,09,03,12,27,25.90
2017,09,03,12,28,25.90
2017,09,03,12,29,26.00
2017,09,03,12,30,25.90
2017,09,03,12,31,25.90
2017,09,03,12,32,25.90
2017,09,03,12,33,25.90
2017,09,03,12,34,25.90
2017,09,03,12,35,25.90
2017,09,03,12,36,26.00
2017,09,03,12,37,26.00
2017,09,03,12,38,26.00
2017,09,03,12,39,26.10
2017,09,03,12,40,26.10
2017,09,03,12,41,26.10
2017,09,03,12,42,26.20
2017,09,03,12,43,26.20
2017,09,03,12,44,26.30
2017,09,03,12,45,26.30
2017,09,03,12,46,26.30
2017,09,03,12,47,26.30
2017,09,03,12,48,26.30
2017,09,03,12,49,26.30
2017,09,03,12,50,26.20
2017,09,03,12,51,26.20
2017,09,03,12,52,26.20
2017,09,03,12,53,26.10
2017,09,03,12,54,26.20
2017,09,03,12,55,26.20
2017,09,03,12,56,26.30
2017,09,03,12,57,26.30
2017,09,03,12,58,26.40
2017,09,03,12,59,26.40
2017,09,03,13,00,26.50
2017,09,03,13,01,26.60
2017,09,03,13,02,26.70
2017,09,03,13,03,26.70
2017,09,03,13,04,26.70
2017,09,03,13,05,26.70
2017,09,03,13,06,26.70
2017,09,03,13,07,26.70
2017,09,03,13,08,26.80
2017,09,03,13,09,26.80
2017,09,03,13,10,26.80
2017,09,03,13,11,26.80
2017,09,03,13,12,26.80
2017,09,03,13,13,26.90
2017,09,03,13,14,26.90
2017,09,03,13,15,26.90
2017,09,03,13,16,27.00
2017,09,03,13,17,27.00
2017,09,03,13,18,27.00
2017,09,03,13,19,26.80
2017,09,03,13,20,26.80
2017,09,03,13,21,26.80
2017,09,03,13,22,26.80
2017,09,03,13,23,26.80
2017,09,03,13,24,26.90
2017,09,03,13,25,26.90
2017,09,03,13,26,26.90
2017,09,03,13,27,27.00
2017,09,03,13,28,27.00
2017,09,03,13,29,27.10
2017,09,03,13,30,27.10
2017,09,03,13,31,27.20
2017,09,03,13,32,27.20
2017,09,03,13,33,27.20
2017,09,03,13,34,27.20
2017,09,03,13,35,27.20
2017,09,03,13,36,27.30
2017,09,03,13,37,27.30
2017,09,03,13,38,27.30
2017,09,03,13,39,27.40
2017,09,03,13,40,27.40
2017,09,03,13,41,27.40
2017,09,03,13,42,27.50
2017,09,03,13,43,27.50
2017,09,03,13,44,27.60
2017,09,03,13,45,27.60
2017,09,03,13,46,27.70
2017,09,03,13,47,27.70
2017,09,03,13,48,27.60
2017,09,03,13,49,27.60
2017,09,03,13,50,27.60
2017,09,03,13,51,27.60
2017,09,03,13,52,27.60
2017,09,03,13,53,27.60
2017,09,03,13,54,27.70
2017,09,03,13,55,27.70
2017,09,03,13,56,27.70
2017,09,03,13,57,27.70
2017,09,03,13,58,27.80
2017,09,03,13,59,27.80
2017,09,03,14,00,27.90
2017,09,03,14,01,28.00
2017,09,03,14,02,28.00
2017,09,03,14,03,28.10
2017,09,03,14,04,28.20
2017,09,03,14,05,28.30
2017,09,03,14,06,28.40
2017,09,03,14,07,28.50
2017,09,03,14,08,28.60
2017,09,03,14,09,28.60
2017,09,03,14,10,28.50
2017,09,03,14,11,28.60
2017,09,03,14,12,28.60
2017,09,03,14,13,28.60
2017,09,03,14,14,28.60
2017,09,03,14,15,28.50
2017,09,03,14,16,28.50
2017,09,03,14,17,28.60
2017,09,03,14,18,28.60
2017,09,03,14,19,28.60
2017,09,03,14,20,28.70
2017,09,03,14,21,28.70
2017,09,03,14,22,28.70
2017,09,03,14,23,28.60
2017,09,03,14,24,28.60
2017,09,03,14,25,28.60
2017,09,03,14,26,28.60
2017,09,03,14,27,28.60
2017,09,03,14,28,28.50
2017,09,03,14,29,28.50
2017,09,03,14,30,28.40
2017,09,03,14,31,28.30
2017,09,03,14,32,28.30
2017,09,03,14,33,28.30
2017,09,03,14,34,28.30
2017,09,03,14,35,28.30
2017,09,03,14,36,28.20
2017,09,03,14,37,28.10
2017,09,03,14,38,28.10
2017,09,03,14,39,28.10
2017,09,03,14,40,28.10
2017,09,03,14,41,28.10
2017,09,03,14,42,28.10
2017,09,03,14,43,28.20
2017,09,03,14,44,28.20
2017,09,03,14,45,28.30
2017,09,03,14,46,28.40
2017,09,03,14,47,28.50
2017,09,03,14,48,28.50
2017,09,03,14,49,28.50
2017,09,03,14,50,28.60
2017,09,03,14,51,28.60
2017,09,03,14,52,28.70
2017,09,03,14,53,28.70
2017,09,03,14,54,28.70
2017,09,03,14,55,28.80
2017,09,03,14,56,28.80
2017,09,03,14,57,28.80
2017,09,03,14,58,28.90
2017,09,03,14,59,29.00
2017,09,03,15,00,29.00
2017,09,03,15,01,29.10
2017,09,03,15,02,29.10
2017,09,03,15,03,29.10
2017,09,03,15,04,29.10
2017,09,03,15,05,29.00
2017,09,03,15,06,29.00
2017,09,03,15,07,29.00
2017,09,03,15,08,29.00
2017,09,03,15,09,28.90
2017,09,03,15,10,28.90
2017,09,03,15,11,28.90
2017,09,03,15,12,28.80
2017,09,03,15,13,28.70
2017,09,03,15,14,28.70
2017,09,03,15,15,28.60
2017,09,03,15,16,28.60
2017,09,03,15,17,28.50
2017,09,03,15,18,28.50
2017,09,03,15,19,28.50
2017,09,03,15,20,28.60
2017,09,03,15,21,28.60
2017,09,03,15,22,28.70
2017,09,03,15,23,28.80
2017,09,03,15,24,28.80
2017,09,03,15,25,28.80
2017,09,03,15,26,28.90
2017,09,03,15,27,28.90
2017,09,03,15,28,29.00
2017,09,03,15,29,29.00
2017,09,03,15,30,28.90
2017,09,03,15,31,29.00
2017,09,03,15,32,29.00
2017,09,03,15,33,29.00
2017,09,03,15,34,29.10
2017,09,03,15,35,29.10
2017,09,03,15,36,29.10
2017,09,03,15,37,29.00
2017,09,03,15,38,29.00
2017,09,03,15,39,28.90
2017,09,03,15,40,28.80
2017,09,03,15,41,28.80
2017,09,03,15,42,28.80
2017,09,03,15,43,28.70
2017,09,03,15,44,28.70
2017,09,03,15,45,28.80
2017,09,03,15,46,28.80
2017,09,03,15,47,28.80
2017,09,03,15,48,28.80
2017,09,03,15,49,28.80
2017,09,03,15,50,28.80
2017,09,03,15,51,28.80
2017,09,03,15,52,28.80
2017,09,03,15,53,28.80
2017,09,03,15,54,28.70
2017,09,03,15,55,28.70
2017,09,03,15,56,28.70
2017,09,03,15,57,28.70
2017,09,03,15,58,28.70
2017,09,03,15,59,28.70
2017,09,03,16,00,28.70
2017,09,03,16,01,28.80
2017,09,03,16,02,28.80
2017,09,03,16,03,28.80
2017,09,03,16,04,28.90
2017,09,03,16,05,28.90
2017,09,03,16,06,28.90
2017,09,03,16,07,29.00
2017,09,03,16,08,29.10
2017,09,03,16,09,29.10
2017,09,03,16,10,29.10
2017,09,03,16,11,29.10
2017,09,03,16,12,29.10
2017,09,03,16,13,29.20
2017,09,03,16,14,29.20
2017,09,03,16,15,29.30
2017,09,03,16,16,29.40
2017,09,03,16,17,29.40
2017,09,03,16,18,29.40
2017,09,03,16,19,29.50
2017,09,03,16,20,29.50
2017,09,03,16,21,29.60
2017,09,03,16,22,29.60
2017,09,03,16,23,29.60
2017,09,03,16,24,29.70
2017,09,03,16,25,29.70
2017,09,03,16,26,29.70
2017,09,03,16,27,29.80
2017,09,03,16,28,29.80
2017,09,03,16,29,29.80
2017,09,03,16,30,29.90
2017,09,03,16,31,30.00
2017,09,03,16,32,30.00
2017,09,03,16,33,30.10
2017,09,03,16,34,30.10
2017,09,03,16,35,30.10
2017,09,03,16,36,30.10
2017,09,03,16,37,30.00
2017,09,03,16,38,30.00
2017,09,03,16,39,30.00
2017,09,03,16,40,30.00
2017,09,03,16,41,29.90
2017,09,03,16,42,29.90
2017,09,03,16,43,29.90
2017,09,03,16,44,29.90
2017,09,03,16,45,29.90
2017,09,03,16,46,29.90
2017,09,03,16,47,29.90
2017,09,03,16,48,29.90
2017,09,03,16,49,29.90
2017,09,03,16,50,29.90
2017,09,03,16,51,30.00
2017,09,03,16,52,30.10
2017,09,03,16,53,30.10
2017,09,03,16,54,30.20
2017,09,03,16,55,30.30
2017,09,03,16,56,30.40
2017,09,03,16,57,30.40
2017,09,03,16,58,30.50
2017,09,03,16,59,30.50
2017,09,03,17,00,30.40
2017,09,03,17,01,30.40
2017,09,03,17,02,30.50
2017,09,03,17,03,30.50
2017,09,03,17,04,30.50
2017,09,03,17,05,30.50
2017,09,03,17,06,30.60
2017,09,03,17,07,30.60
2017,09,03,17,08,30.60
2017,09,03,17,09,30.60
2017,09,03,17,10,30.60
2017,09,03,17,11,30.60
2017,09,03,17,12,30.60
2017,09,03,17,13,30.50
2017,09,03,17,14,30.50
2017,09,03,17,15,30.60
2017,09,03,17,16,30.60
2017,09,03,17,17,30.60
2017,09,03,17,18,30.70
2017,09,03,17,19,30.70